Home > Weather > Helsinki > Past weeks

Flag for Finland Weather for the Past 2 Weeks in Helsinki, Finland

Now
37 °F

Light rain. Partly sunny.


Feels Like: 27 °F
Forecast: 35 / 39 °F
Wind: 18 mph from South

Location: Helsinki-Vantaa

Current Time: Feb 9, 2016 at 9:57:00 AM

Latest Report: Feb 9, 2016 at 9:20 AM


Visibility: 2 mi

Pressure: 29.18 "Hg

Humidity: 100%

Dew point: 37 °F

Location of HelsinkiLocation

Historic Weather in Helsinki — Graph

°F

Helsinki Temperature Yesterday

Maximum temperature yesterday: 37 °F (at 6:50 PM)
Minimum temperature yesterday: 32 °F (at 1:50 PM)
Average temperature yesterday: 35 °F

High & Low Weather Summary for the Past Weeks

 TemperatureHumidityPressure
High41 °F (Jan 30, 2:20 AM)100% (Jan 25, 8:20 AM)30.04 "Hg (Jan 25, 8:20 AM)
Low18 °F (Feb 6, 7:20 AM)69% (Feb 5, 2:50 PM)28.71 "Hg (Feb 2, 7:20 AM)
Average33 °F93%29.37 "Hg
* Reported Jan 25 8:20 AM — Feb 9 8:50 AM, Helsinki, Weather by CustomWeather, © 2016

Note: Actual official high and low records may vary slightly from our data, if they occured in-between our weather recording intervals... More about our weather records

Advertising

Helsinki Weather History for the Previous 24 Hours

 ConditionsComfort  
Time TempWeatherWind HumidityBarometerVisibility
8:50 AM
Tue, Feb 9
37 °FLight rain. Partly sunny.17 mph100%29.18 "Hg2 mi
8:20 AM37 °FLight rain. Partly sunny.17 mph100%29.18 "Hg3 mi
7:50 AM37 °FLight rain. Passing clouds.16 mph93%29.18 "Hg5 mi
7:20 AM37 °FLight rain. Passing clouds.17 mph93%29.21 "Hg5 mi
6:50 AM37 °FLight rain. Passing clouds.17 mph93%29.21 "Hg6 mi
6:20 AM37 °FLight rain. Passing clouds.16 mph93%29.21 "Hg5 mi
5:50 AM37 °FLight rain. Partly cloudy.15 mph93%29.24 "Hg5 mi
5:20 AM37 °FLight rain. Passing clouds.16 mph93%29.24 "Hg5 mi
4:50 AM37 °FLight rain. Passing clouds.15 mph93%29.24 "Hg5 mi
4:20 AM37 °FLight rain. Passing clouds.16 mph93%29.27 "Hg5 mi
3:50 AM37 °FLight rain. Passing clouds.16 mph93%29.27 "Hg4 mi
3:20 AM37 °FLight rain. Passing clouds.17 mph93%29.27 "Hg4 mi
2:50 AM37 °FLight rain. Passing clouds.17 mph93%29.30 "Hg4 mi
2:20 AM37 °FLight rain. Partly cloudy.18 mph93%29.30 "Hg4 mi
1:50 AM37 °FLight rain. Passing clouds.17 mph93%29.30 "Hg4 mi
1:20 AM37 °FLight rain. Passing clouds.18 mph93%29.33 "Hg4 mi
12:50 AM37 °FLight rain. Passing clouds.18 mph93%29.33 "HgN/A
12:20 AM37 °FPartly cloudy.17 mph93%29.33 "HgN/A
11:50 PM
Mon, Feb 8
36 °FPassing clouds.16 mph93%29.36 "HgN/A
11:20 PM36 °FPartly cloudy.16 mph100%29.39 "HgN/A
10:50 PM36 °FPassing clouds.16 mph100%29.39 "HgN/A
10:20 PM36 °FPassing clouds.18 mph100%29.39 "HgN/A
9:50 PM37 °FPassing clouds.18 mph93%29.42 "HgN/A
9:20 PM36 °FPassing clouds.18 mph100%29.42 "HgN/A
8:50 PM36 °FPassing clouds.20 mph100%29.42 "HgN/A
8:20 PM36 °FPassing clouds.18 mph100%29.42 "HgN/A
7:50 PM36 °FPassing clouds.18 mph100%29.42 "HgN/A
7:20 PM37 °FPassing clouds.16 mph93%29.42 "HgN/A
6:50 PM37 °FPassing clouds.14 mph93%29.42 "Hg5 mi
6:20 PM36 °FPassing clouds.14 mph100%29.42 "Hg4 mi
5:50 PM36 °FLow clouds.15 mph100%29.42 "Hg4 mi
5:20 PM36 °FDrizzle. Fog.15 mph100%29.42 "Hg2 mi
4:50 PM36 °FFog.14 mph100%29.42 "Hg1 mi
4:20 PM34 °FFog.14 mph100%29.42 "Hg3 mi
3:50 PM34 °FLight rain. Partly sunny.13 mph100%29.42 "Hg4 mi
3:20 PM34 °FLight rain. Partly sunny.10 mph100%29.42 "Hg3 mi
2:50 PM34 °FLight snow. Partly sunny.10 mph93%29.42 "Hg1 mi
2:20 PM32 °FLight snow. Partly sunny.12 mph100%29.42 "Hg1 mi
1:50 PM32 °FLight snow. Partly sunny.13 mph100%29.42 "Hg1 mi
1:20 PM34 °FLight snow. Partly sunny.14 mph93%29.42 "Hg1 mi
12:50 PM34 °FLight rain. Partly sunny.12 mph100%29.42 "Hg1 mi
12:20 PM34 °FLight rain. Partly sunny.13 mph100%29.42 "Hg3 mi
11:50 AM36 °FLight rain. Partly sunny.15 mph93%29.42 "Hg4 mi
11:20 AM36 °FLight rain. Partly sunny.14 mph93%29.42 "HgN/A
10:50 AM36 °FPartly sunny.15 mph93%29.42 "HgN/A
10:20 AM36 °FPartly sunny.14 mph93%29.42 "HgN/A
9:50 AM36 °FPartly sunny.14 mph93%29.42 "HgN/A
9:20 AM36 °FPartly sunny.13 mph93%29.45 "HgN/A
Weather by CustomWeather, © 2016

See weather overviewHow to use our weather pages